Regional Weather Roundup
Issued by NWS

Current Version | Previous Version | Text Only | Print | Product List | Glossary On
Versions: 1 2 3 4 5 6 7 8 9 10 11 12 13 14 15 16 17 18 19 20 21 22 23 24 25 26 27 28 29 30 31 32 33 34 35 36 37 38 39 40 41 42 43 44 45 46 47 48 49 50
000
ASUS44 KLIX 180410
RWRLA
LOUISIANA WEATHER ROUNDUP
NATIONAL WEATHER SERVICE NEW ORLEANS LA
1100 PM CDT THU APR 17 2014

NOTE: "FAIR" INDICATES FEW OR NO CLOUDS BELOW 12,000 FEET WITH NO
      SIGNIFICANT WEATHER AND/OR OBSTRUCTIONS TO VISIBILITY.
      SKY/WX - SKY CONDITION AND SIGNIFICANT WEATHER.
      TMP - AIR TEMPERATURE.    DP   - DEWPOINT TEMPERATURE.
      RH  - RELATIVE HUMIDITY.  PRES - PRESSURE.
      HX  - HEAT INDEX.         WCI  - WIND CHILL INDEX.

*  THESE STATIONS ARE NOT NWS OR FAA STATIONS AND ARE NOT UNDER
   NWS QUALITY CONTROL.

LAZ040-048-061>063-065-066-069-180500-
SOUTHEAST LOUISIANA

CITY           SKY/WX    TMP DP  RH WIND       PRES   REMARKS
N.O. AUDUBON   NOT AVBL
N.O. INTL ARPT CLOUDY    64  59  83 E13G23    30.11S
N.O. LAKEFRONT CLOUDY    64  59  83 E17       30.12F
N.O. DOWNTOWN* MOCLDY    63  55  77 E9        30.13S
SLIDELL        CLOUDY    62  59  90 NE5       30.13S
BATON ROUGE    CLOUDY    63  57  81 NE6       30.13S
BOOTHVILLE     CLOUDY    63  61  93 N8        30.09R
BELLE CHASSE   CLOUDY    63  59  87 E13G21    30.11F FOG
BOGALUSA*        N/A     63  56  77 E5        30.16F
GALLIANO*      CLOUDY    64  61  92 NE9       30.10S
NEW ROADS*     CLOUDY    60  58  92 N5        30.13F
GONZALES*      CLOUDY    64  59  86 NE3       30.12S
HAMMOND*       CLOUDY    61  57  88 CALM      30.15R
HOUMA*           N/A     63  59  87 NE9       30.10F
PORT FOURCHON* CLOUDY    64  63  94 NE13G22   30.09S

$$

LAZ041-044-053-054-180500-
SOUTHWEST LOUISIANA

CITY           SKY/WX    TMP DP  RH WIND       PRES   REMARKS
LAKE CHARLES   PTCLDY    57  54  89 N5        30.13F
LAFAYETTE      MOCLDY    59  57  93 N3        30.13S
PATTERSON      CLOUDY    63  59  88 NE9         N/A
SALT POINT       N/A     66  61  84 VRB3      30.10S
NEW IBERIA     CLOUDY    63  59  87 NE7       30.13S
CHENAULT AIRPK PTCLDY    57  53  88 N5        30.15S

$$

LAZ027-028-180500-
CENTRAL LOUISIANA

CITY           SKY/WX    TMP DP  RH WIND       PRES   REMARKS
FORT POLK      CLEAR     54  51  90 NE5       30.15S
ALEXANDRIA INT PTCLDY    56  53  90 N5        30.14F
ALEXANDRIA     CLOUDY    56  53  90 CALM      30.16S

$$

LAZ001-002-180500-
NORTHWEST LOUISIANA

CITY           SKY/WX    TMP DP  RH WIND       PRES   REMARKS
SHREVEPORT     MOCLDY    59  50  72 CALM      30.19S
BARKSDALE AFB  MOCLDY    56  50  81 CALM      30.20R
DTN SHREVEPORT MOCLDY    58  50  75 CALM      30.20R

$$

LAZ014-016-180500-
NORTHEAST LOUISIANA

CITY           SKY/WX    TMP DP  RH WIND       PRES   REMARKS
MONROE         PTCLDY    58  54  86 CALM      30.19S
TALLULAH       CLOUDY    62  55  77 CALM      30.19R

$$




USA.gov is the U.S. government's official web portal to all federal, state and local government web resources and services.